Starlink 5650

operational
NORAD ID: 55475 Int'l Des: 2023-015 Owner: SPXS Country: US Constellation: starlink
LEOCIRCULAR

关于 Starlink 5650

正在加载描述...

实时位置

正在加载3D地球...

即将过境

高度历史

Altitude vs Time

uPlot chart will show altitude changes over time

两行轨道根数

1 55475U 23015AC 26063.14224192 .00000530 00000-0 54296-4 0 9997
2 55475 43.0062 355.7749 0001116 277.4658 82.6058 15.02532478169924
Epoch: Mar 4, 2026 • Age: 19 hours

当前状态

高度 567.6 km
速度 7.58 km/s
星下点 -33.00°S, 141.18°W
发射日期 Feb 2, 2023
运行时间 3 years
类型 internet

技术详情

分类 Payload
质量 305.00 kg
干质量 290.00 kg
总质量 305.00 kg
长度 0.20 m
直径 2.80 m
跨度 9.00 m
形状 Box + pan
制造商 SPXS
平台类型 Starlink
阶段状态 In Orbit
所有者/国家 SPXS/US

大型星座

Loading constellations...